Wetterdaten: aktuell Freitag, 04.09.2026 15:26
Datum Zeit Temp. A. Feuchte A. Luftdruck Regen Wind Richtung Richtung Taupunkt Windchill
04.09.2026 15:26 29,8 °C 28 % 1004,6 hPa 0,0 l/m² 18,9 km/h (3 Bft) SO±45° 145 ° 9,3 °C 28,9 °C
04.09.2026 15:24 29,7 °C 29 % 1004,6 hPa 0,0 l/m² 12,9 km/h (3 Bft) SO±67.5° 145 ° 9,7 °C 29,1 °C
04.09.2026 15:22 29,7 °C 29 % 1004,6 hPa 0,0 l/m² 12,9 km/h (3 Bft) SO±67.5° 145 ° 9,7 °C 29,1 °C
04.09.2026 15:20 29,7 °C 29 % 1004,6 hPa 0,0 l/m² 12,9 km/h (3 Bft) SO±67.5° 145 ° 9,7 °C 29,1 °C
04.09.2026 15:18 29,7 °C 29 % 1004,6 hPa 0,0 l/m² 13,4 km/h (3 Bft) O-SO±45° 120 ° 9,7 °C 29,1 °C
04.09.2026 15:16 29,7 °C 29 % 1004,6 hPa 0,0 l/m² 8,7 km/h (2 Bft) SO±45° 125 ° 9,7 °C 29,5 °C
04.09.2026 15:14 29,7 °C 29 % 1004,6 hPa 0,0 l/m² 9,2 km/h (2 Bft) NO±22.5° 55 ° 9,7 °C 29,4 °C
04.09.2026 15:13 29,7 °C 29 % 1004,6 hPa 0,0 l/m² 9,2 km/h (2 Bft) NO±22.5° 55 ° 9,7 °C 29,4 °C
04.09.2026 15:11 29,7 °C 29 % 1004,6 hPa 0,0 l/m² 3,8 km/h (1 Bft) N 10 ° 9,7 °C 29,7 °C
04.09.2026 15:09 29,8 °C 28 % 1004,6 hPa 0,0 l/m² 8,5 km/h (2 Bft) N-NO±45° 15 ° 9,3 °C 29,6 °C
04.09.2026 15:07 29,8 °C 28 % 1004,6 hPa 0,0 l/m² 7,1 km/h (2 Bft) NO±22.5° 40 ° 9,3 °C 29,7 °C
04.09.2026 15:05 29,8 °C 28 % 1004,6 hPa 0,0 l/m² 7,1 km/h (2 Bft) NO±22.5° 40 ° 9,3 °C 29,7 °C
04.09.2026 15:03 29,9 °C 28 % 1004,6 hPa 0,0 l/m² 6,7 km/h (2 Bft) N-NO 30 ° 9,4 °C 29,9 °C
04.09.2026 15:01 29,9 °C 28 % 1004,6 hPa 0,0 l/m² 17,5 km/h (3 Bft) N-NO±22.5° 15 ° 9,4 °C 29,1 °C
04.09.2026 14:59 29,9 °C 28 % 1004,6 hPa 0,0 l/m² 17,5 km/h (3 Bft) N-NO±22.5° 15 ° 9,4 °C 29,1 °C
04.09.2026 14:57 30,0 °C 27 % 1004,6 hPa 0,0 l/m² 9,4 km/h (2 Bft) N-NO±45° 20 ° 8,9 °C 29,7 °C
04.09.2026 14:55 30,3 °C 27 % 1004,6 hPa 0,0 l/m² 14,3 km/h (3 Bft) NO±45° 50 ° 9,2 °C 29,8 °C
04.09.2026 14:53 30,3 °C 27 % 1004,6 hPa 0,0 l/m² 15,6 km/h (3 Bft) O±67.5° 100 ° 9,2 °C 29,7 °C
04.09.2026 14:51 30,3 °C 27 % 1004,6 hPa 0,0 l/m² 15,6 km/h (3 Bft) O±67.5° 100 ° 9,2 °C 29,7 °C
04.09.2026 14:49 30,3 °C 27 % 1004,6 hPa 0,0 l/m² 13,5 km/h (3 Bft) O 85 ° 9,2 °C 29,8 °C
04.09.2026 14:46 30,3 °C 27 % 1004,6 hPa 0,0 l/m² 30,3 km/h (5 Bft) O-SO±67.5° 115 ° 9,2 °C 29,2 °C
04.09.2026 14:44 30,4 °C 27 % 1004,6 hPa 0,0 l/m² 15,0 km/h (3 Bft) O 85 ° 9,3 °C 29,8 °C
04.09.2026 14:42 30,4 °C 28 % 1004,6 hPa 0,0 l/m² 15,0 km/h (3 Bft) O 85 ° 9,8 °C 29,8 °C
04.09.2026 14:40 30,3 °C 28 % 1004,6 hPa 0,0 l/m² 10,8 km/h (2 Bft) NO±45° 45 ° 9,7 °C 30,0 °C
04.09.2026 14:38 30,3 °C 28 % 1004,6 hPa 0,0 l/m² 15,3 km/h (3 Bft) N 10 ° 9,7 °C 29,7 °C
04.09.2026 14:36 30,1 °C 28 % 1004,6 hPa 0,0 l/m² 15,3 km/h (3 Bft) N 10 ° 9,6 °C 29,5 °C
04.09.2026 14:34 30,1 °C 28 % 1004,6 hPa 0,0 l/m² 11,1 km/h (2 Bft) N-NO±22.5° 15 ° 9,6 °C 29,7 °C
04.09.2026 14:33 30,1 °C 28 % 1004,6 hPa 0,0 l/m² 7,9 km/h (2 Bft) N-NO±45° 15 ° 9,6 °C 30,0 °C
04.09.2026 14:31 30,1 °C 28 % 1004,6 hPa 0,0 l/m² 12,2 km/h (2 Bft) O-NO±22.5° 65 ° 9,6 °C 29,6 °C
04.09.2026 14:29 30,0 °C 28 % 1004,6 hPa 0,0 l/m² 12,2 km/h (2 Bft) O-NO±22.5° 65 ° 9,5 °C 29,5 °C
04.09.2026 14:27 30,0 °C 28 % 1005,6 hPa 0,0 l/m² 7,0 km/h (2 Bft) NO±22.5° 45 ° 9,5 °C 29,9 °C
04.09.2026 14:25 29,9 °C 28 % 1005,6 hPa 0,0 l/m² 9,4 km/h (2 Bft) N±22.5° 10 ° 9,4 °C 29,6 °C
04.09.2026 14:23 29,9 °C 28 % 1005,6 hPa 0,0 l/m² 9,4 km/h (2 Bft) N±22.5° 10 ° 9,4 °C 29,6 °C
04.09.2026 14:21 29,9 °C 28 % 1005,6 hPa 0,0 l/m² 9,6 km/h (2 Bft) N-NO±22.5° 25 ° 9,4 °C 29,6 °C
04.09.2026 14:19 29,9 °C 29 % 1005,6 hPa 0,0 l/m² 14,4 km/h (3 Bft) O-NO 70 ° 9,9 °C 29,3 °C
04.09.2026 14:17 29,9 °C 29 % 1005,6 hPa 0,0 l/m² 17,3 km/h (3 Bft) O±67.5° 80 ° 9,9 °C 29,1 °C
04.09.2026 14:15 29,9 °C 29 % 1005,6 hPa 0,0 l/m² 17,3 km/h (3 Bft) O±67.5° 80 ° 9,9 °C 29,1 °C
04.09.2026 14:13 29,8 °C 29 % 1005,6 hPa 0,0 l/m² 15,1 km/h (3 Bft) SO±22.5° 125 ° 9,8 °C 29,1 °C
04.09.2026 14:11 29,8 °C 29 % 1005,6 hPa 0,0 l/m² 11,0 km/h (2 Bft) O-NO±45° 75 ° 9,8 °C 29,4 °C
04.09.2026 14:09 29,8 °C 29 % 1005,6 hPa 0,0 l/m² 14,1 km/h (3 Bft) SO±67.5° 130 ° 9,8 °C 29,2 °C
04.09.2026 14:07 29,8 °C 29 % 1005,6 hPa 0,0 l/m² 14,1 km/h (3 Bft) SO±67.5° 130 ° 9,8 °C 29,2 °C
_ Min-Zeit 04:29 14:44 14:42 - 00:00 - - 14:57 05:38
Minimum _ 19,8 °C 27 % 1004,6 hPa - 0,0 km/h (0 Bft) - - 8,9 °C 19,4 °C
_ Max-Zeit 14:42 08:01 01:53 00:00 14:46 - - 08:32 14:40
Maximum _ 30,4 °C 67 % 1012,1 hPa 0,0 l/m² 30,3 km/h
O-SO (5 Bft)
- - 14,7 °C 30,0 °C
Durchschnitt _ 23,1 °C 53 % 1009,1 hPa #0,0 l/m² 4,8 km/h (1 Bft) SO - 12,3 °C 22,9 °C